Find Starlink 6350

NORAD ID: 57226 Int'l Des: 2023-094 Owner: SPXS Country: US Constellation: starlink operational
LEOCIRCULAR

Live Position

Loading 3D Globe...

About Starlink 6350

Description loading...

Upcoming Passes

Passes for default location (London). Set your location on the main map for personalized predictions.

Altitude History

Loading altitude history...

Two-Line Element Set

1 57226U 23094J 26123.16119516 -.00001991 00000-0 -62909-4 0 9996
2 57226 43.0042 83.3079 0001175 270.3213 89.7504 15.27557070155440
Epoch: May 3, 2026 • Age: 4 hours

Current Status

Altitude 487.4 km
Velocity 7.62 km/s
Sub-Earth Point -20.88°S, 53.8°W
Launch Date Jul 7, 2023
Age 2.8 years
Type internet

Technical Details

Classification Payload
Mass 305.00 kg
Dry Mass 290.00 kg
Total Mass 305.00 kg
Length 0.20 m
Diameter 2.80 m
Span 9.00 m
Shape Box + pan
Manufacturer SPXS
Bus Type Starlink
Phase Status In Orbit
Owner/State SPXS/US

Most Searched